Home   Weather   Petersburg   Past weeks

Flag for USA Past Weather in Petersburg, Indiana, USA — Yesterday and Last 2 Weeks

Now
57 °F

Cool.


Feels Like: 57 °F
Forecast: 54 / 68 °F
Wind: 3 mph from South

Location: Huntingburg Airport

Current Time: Sep 30, 2016 at 9:30:26 PM

Latest Report: Sep 30, 2016 at 8:55 PM


Visibility: 10 mi

Pressure: 30.01 "Hg

Humidity: 82%

Dew Point: 52 °F

Location of PetersburgLocation

Past Weather in Petersburg — Graph

°F

Petersburg Temperature Yesterday

Maximum temperature yesterday: 66 °F (at 3:55 PM)
Minimum temperature yesterday: 48 °F (at 4:15 AM)
Average temperature yesterday: 56 °F

High & Low Weather Summary for the Past Weeks

 TemperatureHumidityPressure
High90 °F (Sep 22, 2:15 PM)94% (Sep 17, 10:35 AM)30.19 "Hg (Sep 17, 10:35 AM)
Low46 °F (Sep 27, 5:15 AM)32% (Sep 27, 4:55 PM)29.80 "Hg (Sep 28, 8:55 AM)
Average69 °F72%30.05 "Hg
* Reported Sep 15 8:15 PM — Sep 30 8:15 PM, Petersburg, Weather by CustomWeather, © 2016

Note: Actual official high and low records may vary slightly from our data, if they occured in-between our weather recording intervals... More about our weather records

Advertising

Petersburg Weather History for the Previous 24 Hours

Scroll right to see more
 ConditionsComfort  
Time TempWeatherWind HumidityBarometerVisibility
8:15 PM
Fri, Sep 30
59 °FCool.5 mph77%30.01 "Hg10 mi
7:55 PM59 °FCool.7 mph77%30.00 "Hg10 mi
7:35 PM61 °FCool.9 mph72%30.00 "Hg10 mi
7:15 PM61 °FCool.8 mph72%30.00 "Hg10 mi
6:55 PM63 °FMild.9 mph68%30.00 "Hg10 mi
6:35 PM63 °FMild.8 mph68%30.00 "Hg10 mi
6:15 PM64 °FMild.7 mph64%30.00 "Hg10 mi
5:55 PM63 °FMild.5 mph68%30.00 "Hg10 mi
5:35 PM63 °FMild.7 mph68%30.00 "Hg10 mi
5:15 PM66 °FMild.6 mph60%30.00 "Hg10 mi
4:55 PM66 °FMild.No wind60%29.99 "Hg10 mi
4:35 PM68 °FMild.6 mph60%29.99 "Hg10 mi
4:15 PM66 °FMild.No wind64%29.99 "Hg10 mi
3:55 PM66 °FMild.No wind64%29.99 "Hg10 mi
3:35 PM66 °FMild.7 mph64%29.99 "Hg10 mi
3:15 PM64 °FMild.3 mph68%30.00 "Hg10 mi
2:55 PM66 °FMild.No wind64%30.01 "Hg10 mi
2:35 PM64 °FMild.6 mph64%30.02 "Hg10 mi
2:15 PM64 °FMild.6 mph68%30.02 "Hg10 mi
1:55 PM64 °FMild.5 mph64%30.03 "Hg10 mi
1:35 PM64 °FMild.5 mph64%30.04 "Hg10 mi
1:15 PM64 °FMild.No wind68%30.04 "Hg10 mi
12:55 PM63 °FMild.No wind68%30.05 "Hg10 mi
12:35 PM63 °FMild.3 mph68%30.04 "Hg10 mi
12:15 PM63 °FMild.3 mph73%30.05 "Hg10 mi
11:55 AM61 °FCool.No wind77%30.04 "Hg10 mi
11:35 AM61 °FCool.3 mph77%30.05 "Hg10 mi
11:15 AM59 °FCool.No wind82%30.05 "Hg10 mi
10:55 AM57 °FCool.No wind88%30.04 "Hg10 mi
10:35 AM59 °FCool.6 mph82%30.04 "Hg10 mi
10:15 AM57 °FCool.5 mph88%30.04 "Hg10 mi
9:55 AM55 °FCool.6 mph94%30.03 "Hg10 mi
9:35 AM55 °FCool.7 mph88%30.03 "Hg10 mi
9:15 AM55 °FCool.6 mph94%30.03 "Hg10 mi
8:55 AM55 °FCool.6 mph88%30.02 "Hg10 mi
8:35 AM55 °FCool.3 mph94%30.02 "Hg5 mi
8:15 AM55 °FCool.6 mph94%30.02 "Hg5 mi
7:55 AM55 °FCool.6 mph94%30.02 "Hg6 mi
7:35 AM55 °FCool.3 mph94%30.02 "Hg8 mi
7:15 AM55 °FCool.5 mph94%30.02 "Hg8 mi
6:55 AM55 °FCool.3 mph94%30.02 "Hg10 mi
6:35 AM55 °FCool.3 mph94%30.02 "Hg10 mi
6:15 AM55 °FCool.3 mph94%30.01 "Hg9 mi
5:55 AM55 °FCool.7 mph94%30.00 "Hg5 mi
5:35 AM55 °FCool.No wind88%30.02 "Hg5 mi
5:15 AM55 °FCool.No wind88%30.01 "Hg5 mi
4:55 AM55 °FCool.No wind88%30.02 "Hg8 mi
4:35 AM55 °FCool.3 mph88%30.03 "Hg10 mi
4:15 AM55 °FCool.No wind88%30.02 "Hg10 mi
3:55 AM55 °FCool.5 mph94%30.02 "Hg10 mi
3:35 AM55 °FCool.No wind88%30.04 "Hg10 mi
3:15 AM55 °FCool.No wind88%30.04 "Hg9 mi
2:55 AM55 °FCool.No wind88%30.04 "Hg10 mi
2:35 AM55 °FCool.3 mph88%30.05 "Hg7 mi
2:15 AM55 °FCool.No wind88%30.05 "Hg10 mi
1:55 AM55 °FCool.3 mph88%30.06 "Hg10 mi
1:35 AM55 °FCool.No wind88%30.06 "Hg8 mi
1:15 AM55 °FCool.3 mph88%30.07 "Hg10 mi
12:55 AM55 °FCool.No wind88%30.08 "Hg10 mi
12:35 AM54 °FCool.No wind94%30.09 "Hg9 mi
12:15 AM54 °FCool.3 mph94%30.10 "Hg7 mi
11:55 PM
Thu, Sep 29
54 °FCool.No wind94%30.10 "Hg7 mi
11:35 PM54 °FCool.No wind88%30.10 "Hg8 mi
11:15 PM54 °FCool.No wind88%30.10 "Hg8 mi
10:55 PM54 °FCool.No wind94%30.10 "Hg10 mi
10:35 PM55 °FCool.No wind88%30.11 "Hg10 mi
10:15 PM55 °FCool.3 mph88%30.11 "Hg10 mi
9:55 PM55 °FCool.No wind88%30.11 "Hg10 mi
9:35 PM57 °FCool.No wind82%30.11 "Hg10 mi
9:15 PM57 °FCool.No wind82%30.11 "Hg10 mi
Weather by CustomWeather, © 2016

See weather overviewHow to use our weather pages